.
WxDataArchive / Data Records for 2006-02-10
2006-02-09 February 2006 2006-02-11

Data Records for Friday, 10 February 2006

Time	Temp	Chill	HIndex	Humid	Dewpt	 Wind 	HiWind	WindDir	Rain 	Barom 
-----	----	-----	------	-----	-----	------	------	-------	-----	----- 
00:00	27.8	27.8	27.8	71	19.6	0	3	248	0.00	30.099 
00:05	27.8	27.8	27.8	71	19.6	1	4	225	0.00	30.099 
00:10	27.6	27.6	27.6	72	19.8	1	3	248	0.00	30.099 
00:15	27.6	27.6	27.6	72	19.8	0	2	135	0.00	30.091 
00:20	27.5	27.5	27.5	73	20.0	1	2	248	0.00	30.091 
00:25	27.3	27.3	27.3	72	19.5	1	4	248	0.00	30.091 
00:30	27.3	27.3	27.3	73	19.8	1	3	248	0.00	30.095 
00:35	27.3	27.3	27.3	73	19.8	1	3	248	0.00	30.095 
00:40	27.3	27.3	27.3	73	19.8	0	3	248	0.00	30.095 
00:45	27.2	27.2	27.2	73	19.7	1	3	248	0.00	30.087 
00:50	27.2	27.2	27.2	73	19.7	0	2	248	0.00	30.087 
00:55	27.2	27.2	27.2	73	19.7	1	3	248	0.00	30.087 
01:00	27.2	27.2	27.2	73	19.7	1	4	225	0.00	30.080 
01:05	27.2	27.2	27.2	73	19.7	0	3	248	0.00	30.080 
01:10	27.0	27.0	27.0	73	19.5	0	1	248	0.00	30.080 
01:15	27.0	27.0	27.0	73	19.5	1	2	248	0.00	30.069 
01:20	27.0	27.0	27.0	73	19.5	0	2	248	0.00	30.069 
01:25	27.0	27.0	27.0	73	19.5	0	2	248	0.00	30.069 
01:30	27.0	27.0	27.0	73	19.5	0	2	248	0.00	30.068 
01:35	27.0	27.0	27.0	73	19.5	1	4	248	0.00	30.068 
01:40	27.0	27.0	27.0	73	19.5	0	1	248	0.00	30.068 
01:45	27.0	27.0	27.0	73	19.5	0	2	248	0.00	30.069 
01:50	27.0	27.0	27.0	73	19.5	1	4	248	0.00	30.069 
01:55	27.2	27.2	27.2	73	19.7	1	3	248	0.00	30.069 
02:00	27.2	27.2	27.2	73	19.7	0	2	248	0.00	30.068 
02:05	27.2	27.2	27.2	73	19.7	0	2	248	0.00	30.068 
02:10	27.2	27.2	27.2	73	19.7	1	3	225	0.00	30.068 
02:15	27.2	27.2	27.2	73	19.7	0	2	225	0.00	30.064 
02:20	27.2	27.2	27.2	73	19.7	0	2	225	0.00	30.064 
02:25	27.2	27.2	27.2	73	19.7	0	2	225	0.00	30.064 
02:30	27.2	27.2	27.2	72	19.4	0	2	225	0.00	30.056 
02:35	27.3	27.3	27.3	72	19.5	0	3	225	0.00	30.056 
02:40	27.3	27.3	27.3	73	19.8	0	2	248	0.00	30.056 
02:45	27.2	27.2	27.2	73	19.7	0	3	248	0.00	30.047 
02:50	27.2	27.2	27.2	73	19.7	1	3	202	0.00	30.047 
02:55	27.2	27.2	27.2	73	19.7	1	3	248	0.00	30.047 
03:00	27.2	27.2	27.2	73	19.7	0	2	248	0.00	30.047 
03:05	27.2	27.2	27.2	73	19.7	0	1	248	0.00	30.047 
03:10	27.2	27.2	27.2	73	19.7	0	1	248	0.00	30.047 
03:15	27.0	27.0	27.0	74	19.8	1	2	158	0.00	30.034 
03:20	27.0	27.0	27.0	73	19.5	0	2	180	0.00	30.034 
03:25	27.0	27.0	27.0	74	19.8	0	1	158	0.00	30.034 
03:30	27.0	27.0	27.0	74	19.8	0	2	158	0.00	30.019 
03:35	27.0	27.0	27.0	73	19.5	1	2	112	0.00	30.019 
03:40	27.0	27.0	27.0	74	19.8	1	3	112	0.00	30.019 
03:45	27.0	27.0	27.0	74	19.8	0	1	90	0.00	30.015 
03:50	26.9	26.9	26.9	74	19.7	0	2	90	0.00	30.015 
03:55	26.9	26.9	26.9	73	19.4	1	3	248	0.00	30.015 
04:00	26.9	26.9	26.9	74	19.7	0	3	248	0.00	30.013 
04:05	26.9	26.9	26.9	74	19.7	1	3	248	0.00	30.013 
04:10	26.9	26.9	26.9	74	19.7	0	2	248	0.00	30.013 
04:15	26.9	26.9	26.9	74	19.7	0	2	248	0.00	30.004 
04:20	26.9	26.9	26.9	74	19.7	0	1	248	0.00	30.004 
04:25	26.7	26.7	26.7	75	19.9	0	1	248	0.00	30.004 
04:30	26.9	26.9	26.9	74	19.7	1	2	248	0.00	30.010 
04:35	26.9	26.9	26.9	75	20.1	0	2	248	0.00	30.010 
04:40	26.9	26.9	26.9	74	19.7	1	5	248	0.00	30.010 
04:45	27.0	27.0	27.0	75	20.2	0	2	248	0.00	29.998 
04:50	27.0	27.0	27.0	75	20.2	0	2	248	0.00	29.998 
04:55	27.0	27.0	27.0	75	20.2	0	2	248	0.00	29.998 
05:00	27.0	27.0	27.0	75	20.2	1	3	225	0.00	30.002 
05:05	27.0	27.0	27.0	75	20.2	1	2	248	0.00	30.002 
05:10	27.2	27.2	27.2	74	20.0	1	4	248	0.00	30.002 
05:15	27.2	27.2	27.2	74	20.0	1	2	248	0.00	29.998 
05:20	27.3	27.3	27.3	74	20.1	0	4	248	0.00	29.998 
05:25	27.3	27.3	27.3	74	20.1	1	4	270	0.00	29.998 
05:30	27.3	27.3	27.3	74	20.1	1	4	248	0.00	29.996 
05:35	27.3	27.3	27.3	74	20.1	1	3	248	0.00	29.996 
05:40	27.3	27.3	27.3	74	20.1	1	2	248	0.00	29.996 
05:45	27.3	27.3	27.3	74	20.1	1	4	248	0.00	29.990 
05:50	27.3	27.3	27.3	74	20.1	1	4	248	0.00	29.990 
05:55	27.3	27.3	27.3	74	20.1	1	3	248	0.00	29.990 
06:00	27.5	27.5	27.5	74	20.3	1	3	248	0.00	29.992 
06:05	27.5	27.5	27.5	74	20.3	1	2	248	0.00	29.992 
06:10	27.5	27.5	27.5	75	20.6	1	3	248	0.00	29.992 
06:15	27.5	27.5	27.5	75	20.6	1	4	248	0.00	29.991 
06:20	27.5	27.5	27.5	75	20.6	1	3	248	0.00	29.991 
06:25	27.5	27.5	27.5	75	20.6	1	3	248	0.00	29.991 
06:30	27.5	27.5	27.5	75	20.6	1	4	248	0.00	29.992 
06:35	27.5	27.5	27.5	75	20.6	1	3	248	0.00	29.992 
06:40	27.5	27.5	27.5	75	20.6	1	3	248	0.00	29.992 
06:45	27.6	27.6	27.6	75	20.7	1	4	248	0.00	29.991 
06:50	27.6	27.6	27.6	75	20.7	1	3	248	0.00	29.991 
06:55	27.6	27.6	27.6	75	20.7	1	3	248	0.00	29.991 
07:00	27.6	27.6	27.6	77	21.4	1	3	248	0.00	29.990 
07:05	27.6	27.6	27.6	77	21.4	1	4	248	0.00	29.990 
07:10	27.5	27.5	27.5	77	21.3	2	5	248	0.00	29.990 
07:15	27.5	27.5	27.5	78	21.6	1	4	248	0.00	29.991 
07:20	27.5	27.5	27.5	79	21.9	1	3	248	0.00	29.991 
07:25	27.5	27.5	27.5	79	21.9	1	4	248	0.00	29.991 
07:30	27.3	27.3	27.3	79	21.7	1	3	248	0.00	29.989 
07:35	27.3	27.3	27.3	80	22.0	1	3	225	0.00	29.989 
07:40	27.3	27.3	27.3	80	22.0	1	4	248	0.00	29.989 
07:45	27.5	27.5	27.5	80	22.2	2	4	248	0.00	29.994 
07:50	27.5	27.5	27.5	81	22.4	1	3	248	0.00	29.994 
07:55	27.5	27.5	27.5	81	22.4	1	3	248	0.00	29.994 
08:00	27.5	27.5	27.5	81	22.4	1	3	248	0.00	29.990 
08:05	27.5	27.5	27.5	81	22.4	1	4	248	0.00	29.990 
08:10	27.6	27.6	27.6	81	22.5	1	4	248	0.00	29.990 
08:15	27.6	27.6	27.6	81	22.5	1	3	248	0.00	30.000 
08:20	27.6	27.6	27.6	82	22.8	1	3	248	0.00	30.000 
08:25	27.6	27.6	27.6	81	22.5	2	5	248	0.00	30.000 
08:30	27.8	27.8	27.8	81	22.7	2	6	248	0.00	30.002 
08:35	27.8	27.8	27.8	81	22.7	2	5	248	0.00	30.002 
08:40	27.8	27.8	27.8	81	22.7	2	4	248	0.00	30.002 
08:45	27.9	27.9	27.9	81	22.8	2	5	248	0.00	29.999 
08:50	27.9	27.9	27.9	81	22.8	2	4	248	0.00	29.999 
08:55	28.1	28.1	28.1	81	23.0	1	3	248	0.00	29.999 
09:00	28.2	28.2	28.2	81	23.1	1	4	248	0.00	30.002 
09:05	28.4	28.4	28.4	81	23.3	1	3	248	0.00	30.002 
09:10	28.5	28.5	28.5	81	23.4	1	4	248	0.00	30.002 
09:15	28.5	28.5	28.5	80	23.1	2	6	248	0.00	30.004 
09:20	28.7	28.7	28.7	80	23.3	1	3	248	0.00	30.004 
09:25	28.8	28.8	28.8	80	23.4	2	6	248	0.00	30.004 
09:30	28.8	28.8	28.8	79	23.1	2	6	248	0.00	30.005 
09:35	29.0	29.0	29.0	79	23.3	2	5	248	0.00	30.005 
09:40	29.0	29.0	29.0	79	23.3	2	4	248	0.00	30.005 
09:45	29.1	29.1	29.1	78	23.1	2	5	248	0.00	30.004 
09:50	29.1	29.1	29.1	78	23.1	2	7	248	0.00	30.004 
09:55	29.1	29.1	29.1	78	23.1	3	7	270	0.00	30.004 
10:00	29.3	29.3	29.3	77	23.0	3	6	248	0.00	30.006 
10:05	29.3	29.3	29.3	77	23.0	2	6	270	0.00	30.006 
10:10	29.4	29.4	29.4	76	22.8	2	5	248	0.00	30.006 
10:15	29.7	29.7	29.7	75	22.8	2	6	248	0.00	30.003 
10:20	29.8	29.8	29.8	73	22.2	2	7	248	0.00	30.003 
10:25	30.0	25.8	30.0	72	22.1	4	11	248	0.00	30.003 
10:30	30.3	30.3	30.3	73	22.7	2	5	248	0.00	29.999 
10:35	30.7	30.7	30.7	72	22.8	2	6	248	0.00	29.999 
10:40	31.0	31.0	31.0	70	22.4	2	7	270	0.00	29.999 
10:45	31.3	31.3	31.3	68	22.0	2	5	270	0.00	30.003 
10:50	31.6	31.6	31.6	68	22.3	3	7	248	0.00	30.003 
10:55	31.6	31.6	31.6	66	21.6	3	9	248	0.00	30.003 
11:00	31.3	31.3	31.3	67	21.6	2	4	248	0.00	30.005 
11:05	31.3	31.3	31.3	68	22.0	1	3	292	0.00	30.005 
11:10	31.3	31.3	31.3	68	22.0	2	6	248	0.00	30.005 
11:15	31.3	27.3	31.3	67	21.6	4	10	248	0.00	30.010 
11:20	31.3	31.3	31.3	67	21.6	3	7	248	0.00	30.010 
11:25	31.3	31.3	31.3	67	21.6	3	6	248	0.00	30.010 
11:30	31.5	31.5	31.5	67	21.8	2	6	248	0.00	30.005 
11:35	31.6	31.6	31.6	67	21.9	2	7	248	0.00	30.005 
11:40	31.5	31.5	31.5	68	22.2	2	5	270	0.00	30.005 
11:45	31.6	31.6	31.6	68	22.3	1	3	270	0.00	30.003 
11:50	31.8	31.8	31.8	67	22.1	2	7	248	0.00	30.003 
11:55	31.6	31.6	31.6	67	21.9	3	9	248	0.00	30.003 
12:00	31.9	31.9	31.9	67	22.2	3	6	248	0.00	30.011 
12:05	32.1	32.1	32.1	67	22.4	2	4	270	0.00	30.011 
12:10	32.2	32.2	32.2	67	22.5	2	6	248	0.00	30.011 
12:15	32.4	32.4	32.4	68	23.0	2	5	248	0.00	30.009 
12:20	32.5	32.5	32.5	65	22.1	2	4	248	0.00	30.009 
12:25	32.8	32.8	32.8	65	22.3	2	5	248	0.00	30.009 
12:30	32.7	32.7	32.7	65	22.3	3	7	248	0.00	30.001 
12:35	32.5	32.5	32.5	65	22.1	3	6	248	0.00	30.001 
12:40	32.4	32.4	32.4	65	22.0	3	7	270	0.00	30.001 
12:45	32.4	32.4	32.4	65	22.0	3	6	248	0.00	30.004 
12:50	32.5	32.5	32.5	66	22.4	3	9	248	0.00	30.004 
12:55	32.7	32.7	32.7	66	22.6	2	6	248	0.00	30.004 
13:00	32.8	32.8	32.8	67	23.1	2	6	248	0.00	29.999 
13:05	32.9	32.9	32.9	65	22.4	2	7	248	0.00	29.999 
13:10	33.1	33.1	33.1	65	22.6	2	5	248	0.00	29.999 
13:15	33.2	33.2	33.2	65	22.7	2	5	248	0.00	29.992 
13:20	33.4	33.4	33.4	65	22.9	2	6	248	0.00	29.992 
13:25	33.4	33.4	33.4	65	22.9	3	6	248	0.00	29.992 
13:30	33.5	33.5	33.5	65	23.0	2	6	248	0.00	29.990 
13:35	33.5	29.8	33.5	65	23.0	4	10	248	0.00	29.990 
13:40	33.7	33.7	33.7	65	23.2	2	7	270	0.00	29.990 
13:45	33.8	33.8	33.8	64	22.9	3	9	270	0.00	29.983 
13:50	34.0	34.0	34.0	64	23.1	2	6	248	0.00	29.983 
13:55	34.4	34.4	34.4	64	23.5	2	4	248	0.00	29.983 
14:00	34.7	34.7	34.7	65	24.2	1	3	270	0.00	29.983 
14:05	35.0	35.0	35.0	63	23.7	2	4	248	0.00	29.983 
14:10	35.3	35.3	35.3	62	23.6	2	5	248	0.00	29.983 
14:15	35.3	35.3	35.3	63	24.0	2	4	338	0.00	29.980 
14:20	35.3	35.3	35.3	61	23.2	3	7	248	0.00	29.980 
14:25	35.6	35.6	35.6	62	23.9	2	4	248	0.00	29.980 
14:30	35.9	35.9	35.9	63	24.5	2	6	248	0.00	29.979 
14:35	35.9	35.9	35.9	62	24.2	2	4	270	0.00	29.979 
14:40	35.9	35.9	35.9	62	24.2	2	6	248	0.00	29.979 
14:45	36.2	36.2	36.2	62	24.5	1	3	248	0.00	29.975 
14:50	36.2	36.2	36.2	60	23.7	2	7	248	0.00	29.975 
14:55	36.0	36.0	36.0	62	24.3	3	7	248	0.00	29.975 
15:00	36.2	36.2	36.2	62	24.5	3	10	270	0.00	29.983 
15:05	36.0	32.7	36.0	60	23.5	4	9	248	0.00	29.983 
15:10	36.2	32.9	36.2	60	23.7	4	11	248	0.00	29.983 
15:15	36.0	36.0	36.0	59	23.1	3	6	248	0.00	29.984 
15:20	36.2	36.2	36.2	61	24.1	3	6	270	0.00	29.984 
15:25	36.3	36.3	36.3	61	24.2	2	6	270	0.00	29.984 
15:30	36.5	36.5	36.5	62	24.7	2	7	248	0.00	29.984 
15:35	36.8	36.8	36.8	62	25.0	1	3	248	0.00	29.984 
15:40	36.9	36.9	36.9	60	24.3	3	9	248	0.00	29.984 
15:45	36.9	36.9	36.9	59	23.9	2	5	248	0.00	29.986 
15:50	36.9	36.9	36.9	61	24.7	1	3	270	0.00	29.986 
15:55	37.0	37.0	37.0	60	24.4	2	4	248	0.00	29.986 
16:00	36.9	33.7	36.9	60	24.3	4	10	248	0.00	29.989 
16:05	36.9	36.9	36.9	60	24.3	2	6	248	0.00	29.989 
16:10	36.6	36.6	36.6	60	24.0	2	5	248	0.00	29.989 
16:15	36.6	36.6	36.6	60	24.0	2	5	248	0.00	29.994 
16:20	36.6	36.6	36.6	60	24.0	2	5	248	0.00	29.994 
16:25	36.8	36.8	36.8	61	24.6	2	4	248	0.00	29.994 
16:30	37.0	37.0	37.0	60	24.4	2	6	248	0.00	29.995 
16:35	37.0	37.0	37.0	60	24.4	2	5	248	0.00	29.995 
16:40	37.0	37.0	37.0	60	24.4	3	5	248	0.00	29.995 
16:45	37.0	37.0	37.0	60	24.4	1	3	248	0.00	29.994 
16:50	37.0	37.0	37.0	60	24.4	2	5	248	0.00	29.994 
16:55	37.0	37.0	37.0	59	24.0	3	5	248	0.00	29.994 
17:00	37.0	37.0	37.0	61	24.8	2	6	248	0.00	29.994 
17:05	37.0	37.0	37.0	60	24.4	1	4	248	0.00	29.994 
17:10	36.9	36.9	36.9	59	23.9	2	7	248	0.00	29.994 
17:15	36.9	36.9	36.9	60	24.3	2	4	225	0.00	29.995 
17:20	36.9	36.9	36.9	59	23.9	1	4	225	0.00	29.995 
17:25	36.9	36.9	36.9	60	24.3	1	4	248	0.00	29.995 
17:30	36.9	36.9	36.9	61	24.7	1	3	248	0.00	29.997 
17:35	36.8	36.8	36.8	60	24.2	1	4	248	0.00	29.997 
17:40	36.6	36.6	36.6	61	24.4	1	3	248	0.00	29.997 
17:45	36.6	36.6	36.6	61	24.4	1	4	248	0.00	30.000 
17:50	36.5	36.5	36.5	61	24.3	1	3	248	0.00	30.000 
17:55	36.5	36.5	36.5	61	24.3	2	5	248	0.00	30.000 
18:00	36.5	36.5	36.5	61	24.3	1	4	248	0.00	30.007 
18:05	36.3	36.3	36.3	62	24.5	1	2	225	0.00	30.007 
18:10	36.3	36.3	36.3	62	24.5	0	2	225	0.00	30.007 
18:15	36.2	36.2	36.2	62	24.5	0	3	225	0.00	30.012 
18:20	36.0	36.0	36.0	63	24.6	0	1	225	0.00	30.012 
18:25	35.9	35.9	35.9	65	25.3	0	2	225	0.00	30.012 
18:30	35.6	35.6	35.6	66	25.4	0	0	---	0.00	30.013 
18:35	35.5	35.5	35.5	68	26.0	0	0	---	0.00	30.013 
18:40	35.3	35.3	35.3	68	25.8	0	0	---	0.00	30.013 
18:45	35.0	35.0	35.0	69	25.9	0	0	---	0.00	30.015 
18:50	34.7	34.7	34.7	69	25.6	0	0	---	0.00	30.015 
18:55	34.6	34.6	34.6	70	25.8	0	1	225	0.00	30.015 
19:00	34.6	34.6	34.6	70	25.8	0	1	225	0.00	30.018 
19:05	34.4	34.4	34.4	71	26.0	0	0	---	0.00	30.018 
19:10	34.3	34.3	34.3	71	25.9	0	0	---	0.00	30.018 
19:15	34.3	34.3	34.3	71	25.9	0	1	225	0.00	30.016 
19:20	34.3	34.3	34.3	72	26.2	0	0	---	0.00	30.016 
19:25	34.1	34.1	34.1	73	26.4	0	1	225	0.00	30.016 
19:30	34.1	34.1	34.1	72	26.0	0	1	225	0.00	30.022 
19:35	34.0	34.0	34.0	73	26.3	0	2	225	0.00	30.022 
19:40	34.0	34.0	34.0	73	26.3	0	1	225	0.00	30.022 
19:45	34.0	34.0	34.0	73	26.3	0	2	225	0.00	30.025 
19:50	34.0	34.0	34.0	73	26.3	0	1	225	0.00	30.025 
19:55	34.0	34.0	34.0	73	26.3	0	2	225	0.00	30.025 
20:00	34.0	34.0	34.0	73	26.3	0	0	---	0.00	30.030 
20:05	33.8	33.8	33.8	74	26.4	0	1	225	0.00	30.030 
20:10	33.8	33.8	33.8	74	26.4	0	2	225	0.00	30.030 
20:15	34.0	34.0	34.0	73	26.3	1	2	225	0.00	30.031 
20:20	34.0	34.0	34.0	74	26.6	0	1	225	0.00	30.031 
20:25	34.0	34.0	34.0	74	26.6	0	1	225	0.00	30.031 
20:30	33.8	33.8	33.8	74	26.4	0	1	225	0.00	30.029 
20:35	33.8	33.8	33.8	74	26.4	1	2	225	0.00	30.029 
20:40	33.8	33.8	33.8	74	26.4	0	2	225	0.00	30.029 
20:45	33.8	33.8	33.8	74	26.4	1	3	248	0.00	30.032 
20:50	33.8	33.8	33.8	74	26.4	0	2	248	0.00	30.032 
20:55	33.8	33.8	33.8	74	26.4	0	1	248	0.00	30.032 
21:00	33.7	33.7	33.7	75	26.6	0	2	248	0.00	30.035 
21:05	33.5	33.5	33.5	75	26.4	0	1	248	0.00	30.035 
21:10	33.4	33.4	33.4	75	26.3	0	2	248	0.00	30.035 
21:15	33.2	33.2	33.2	75	26.2	0	2	248	0.00	30.043 
21:20	33.2	33.2	33.2	75	26.2	1	2	248	0.00	30.043 
21:25	33.1	33.1	33.1	76	26.4	0	1	248	0.00	30.043 
21:30	33.1	33.1	33.1	76	26.4	0	2	248	0.00	30.039 
21:35	33.1	33.1	33.1	76	26.4	1	2	248	0.00	30.039 
21:40	33.1	33.1	33.1	75	26.1	0	2	248	0.00	30.039 
21:45	32.9	32.9	32.9	76	26.2	0	2	248	0.00	30.039 
21:50	32.9	32.9	32.9	76	26.2	1	2	248	0.00	30.039 
21:55	32.9	32.9	32.9	76	26.2	0	3	248	0.00	30.039 
22:00	32.8	32.8	32.8	76	26.1	1	2	248	0.00	30.035 
22:05	32.5	32.5	32.5	76	25.8	0	1	248	0.00	30.035 
22:10	32.4	32.4	32.4	76	25.7	0	1	248	0.00	30.035 
22:15	32.2	32.2	32.2	77	25.8	0	2	248	0.00	30.034 
22:20	32.1	32.1	32.1	77	25.7	1	2	248	0.00	30.034 
22:25	31.9	31.9	31.9	77	25.5	0	2	248	0.00	30.034 
22:30	31.9	31.9	31.9	78	25.8	0	1	248	0.00	30.040 
22:35	31.8	31.8	31.8	78	25.7	0	1	248	0.00	30.040 
22:40	31.6	31.6	31.6	78	25.5	0	1	248	0.00	30.040 
22:45	31.5	31.5	31.5	79	25.8	0	0	---	0.00	30.044 
22:50	31.5	31.5	31.5	79	25.8	0	0	---	0.00	30.044 
22:55	31.5	31.5	31.5	80	26.1	0	0	---	0.00	30.044 
23:00	31.5	31.5	31.5	80	26.1	0	0	---	0.00	30.045 
23:05	31.5	31.5	31.5	80	26.1	0	0	---	0.00	30.045 
23:10	31.5	31.5	31.5	80	26.1	0	0	---	0.00	30.045 
23:15	31.6	31.6	31.6	80	26.2	0	0	---	0.00	30.045 
23:20	31.6	31.6	31.6	80	26.2	0	0	---	0.00	30.045 
23:25	31.6	31.6	31.6	80	26.2	0	0	---	0.00	30.045 
23:30	31.6	31.6	31.6	80	26.2	0	0	---	0.00	30.045 
23:35	31.5	31.5	31.5	80	26.1	0	0	---	0.00	30.045 
23:40	31.5	31.5	31.5	80	26.1	0	0	---	0.00	30.045 
23:45	31.5	31.5	31.5	81	26.4	0	0	---	0.00	30.045 
23:50	31.5	31.5	31.5	81	26.4	0	0	---	0.00	30.045 
23:55	31.5	31.5	31.5	81	26.4	0	0	---	0.00	30.045 

CoCoRaHS
IN-AL-39
A2 Web Hosting
Creative Commons License
GoDaddy
Look for:

loaded 2017-12-13 10:15:54 • last modified 2010-11-18 10:43:29
Privacy PolicyDisclaimer
• wx.awcolley.com is powered by PmWiki v.2002016 •
• all content (unless otherwise noted) © 2017 A W Colley